Regional Weather Roundup
Issued by NWS Sioux Falls, SD

Home | Current Version | Previous Version | Text Only | Print | Product List | Glossary On
Versions: 1 2 3 4 5 6 7 8 9 10 11 12 13 14 15 16 17 18 19 20 21 22 23 24 25 26 27 28 29 30 31 32 33 34 35 36 37 38 39 40 41 42 43 44 45 46 47 48 49 50
000
ASUS43 KFSD 250910
RWRFSD

WEATHER ROUNDUP FOR SE SOUTH DAKOTA/SW MINNESOTA/NW IOWA
NATIONAL WEATHER SERVICE SIOUX FALLS SD
400 AM CDT SUN JUN 25 2017

NOTE: "FAIR" INDICATES FEW OR NO CLOUDS BELOW 12,000 FEET WITH NO
SIGNIFICANT WEATHER AND OR OBSTRUCTIONS TO VISIBILITY.


SDZ038>040-050-052>070-251000-
SOUTHEAST SOUTH DAKOTA

CITY           SKY/WX    TMP DP  RH WIND       PRES   REMARKS
BROOKINGS      MOCLDY    48  43  82 NW5       30.23R
CHAMBERLAIN    CLEAR     47  44  88 W8        30.32R
HURON          CLEAR     44  43  96 W8        30.27R
MADISON        FAIR      46  46 100 NW10      30.25R
MITCHELL       NOT AVBL
SIOUX FALLS    CLEAR     50  45  83 W9        30.23R
WINNER         FAIR      44  37  76 SW8       30.33S
YANKTON        CLEAR     50  43  77 W9        30.27S
$$

MNZ071-072-080-081-089-090-097-098-251000-
SOUTHWEST MINNESOTA

CITY           SKY/WX    TMP DP  RH WIND       PRES   REMARKS
FAIRMONT       PTCLDY    52  46  80 NW10      30.15S
JACKSON        CLEAR     52  45  76 NW10      30.17S
LUVERNE        CLEAR     46  41  81 W7        30.22R
MARSHALL       PTCLDY    51  42  71 NW15      30.19R
MONTEVIDEO     PTCLDY    50  43  76 N12       30.18S
PIPESTONE      CLEAR     52  45  76 NW8       30.21S
REDWOOD FALLS  CLOUDY    53  45  74 NW14      30.15S
TRACY          PTCLDY    52  44  74 NW15      30.18S
WINDOM         PTCLDY    52  45  76 W9        30.16F
WORTHINGTON    CLEAR     50  45  83 W10       30.20S
$$

IAZ001>003-012>014-020>022-031-032-NEZ013-014-SDZ071-251000-
NORTHWEST IOWA

CITY           SKY/WX    TMP DP  RH WIND       PRES   REMARKS
CHEROKEE       PTCLDY    48  44  85 W3        30.22F
DENISON          N/A    N/A N/A N/A CALM      30.24S
ESTHERVILLE    CLEAR     48  46  93 W8        30.16S
LE MARS        PTCLDY    48  43  81 CALM      30.25R
ORANGE CITY    PTCLDY    46  43  87 W3        30.23R
SHELDON        PTCLDY    48  45  87 W7        30.20S
SIOUX CITY     PTCLDY    48  42  80 W5        30.26R
SPENCER        CLEAR     50  45  83 W9        30.19S
STORM LAKE     CLEAR     46  41  81 W10       30.21S
$$

ABBREVIATIONS USED IN REMARKS
   TC - TEMPERATURE IN CELSIUS
  WCI - WIND CHILL INDEX
   HX - HEAT INDEX
  VSB - VISIBILITY





USA.gov is the U.S. government's official web portal to all federal, state and local government web resources and services.